Location: Althorst
(53.6379°N, 10.7715°E)
Time: 04:19:23
(UTC+00:00)

Ariane Rocket - Pass Details

Date: 10 December 2019
Orbit: 761 x 769 km, 98.7° (Epoch: 26 January)

Event Time Altitude Azimuth Distance (km) Brightness Sun altitude
Exits shadow 16:49:09 23° 58° (ENE) 1,577 4.0 -15.4°
Maximum altitude 16:49:16 23° 55° (NE) 1,576 4.0 -15.4°
Drops below altitude 10° 16:53:13 10° 4° (N) 2,309 5.3 -15.9°
Sets 16:55:54 0° 351° (N) 3,239 6.2 -16.3°
